Date,TemperatureHighF,TemperatureAvgF,TemperatureLowF,DewpointHighF,DewpointAvgF,DewpointLowF,HumidityHigh,HumidityAvg,HumidityLow,PressureMaxIn,PressureMinIn,WindSpeedMaxMPH,WindSpeedAvgMPH,GustSpeedMaxMPH,PrecipitationSumIn
2013-1-1,20,10,6,3,1,-1,80,68,46,0.00,40.00,5,3,11,0.00
2013-1-2,25,18,11,15,8,3,76,66,46,0.00,40.00,5,3,11,0.00
2013-1-3,26,22,15,19,16,9,80,78,74,0.00,40.00,6,5,12,0.00
2013-1-4,30,22,10,17,13,5,80,71,57,0.00,40.00,11,6,16,0.00
2013-1-5,35,27,14,29,21,9,80,78,74,0.00,40.00,9,5,16,0.00
2013-1-6,35,25,16,29,18,11,80,77,64,0.00,40.00,10,4,18,0.00
2013-1-7,36,23,14,24,16,8,79,74,57,0.00,40.00,11,5,24,0.00
2013-1-8,38,34,24,31,26,18,80,75,65,0.00,40.00,11,4,19,0.00
2013-1-9,39,34,26,30,25,20,80,70,52,0.00,40.00,13,6,24,0.00
2013-1-10,40,30,21,31,24,16,80,76,63,0.00,40.00,7,4,15,0.00
2013-1-11,46,40,35,40,35,30,80,80,78,0.00,40.00,7,3,16,0.00
2013-1-12,48,34,22,41,25,15,79,70,61,0.00,40.00,19,7,31,0.00
2013-1-13,22,18,14,16,8,4,79,66,54,0.00,40.00,7,4,16,0.00
2013-1-14,26,17,9,9,5,3,79,63,39,0.00,40.00,6,3,12,0.00
2013-1-15,29,20,14,13,10,8,80,65,42,0.00,40.00,9,3,14,0.00
2013-1-16,34,26,18,27,18,9,80,70,57,0.00,40.00,14,6,22,0.00
2013-1-17,29,23,17,20,7,1,73,53,36,0.00,40.00,6,3,12,0.00
2013-1-18,42,30,17,31,22,9,77,70,60,0.00,40.00,19,9,35,0.00
2013-1-19,46,37,17,32,26,4,79,65,40,0.00,40.00,19,7,35,0.00
2013-1-20,17,12,8,4,-1,-3,62,56,47,0.00,40.00,10,5,22,0.00
2013-1-21,11,4,-1,0,-7,-11,72,60,51,0.00,40.00,8,5,17,0.00
2013-1-22,9,1,-5,-5,-9,-13,71,62,51,0.00,40.00,6,3,15,0.00
2013-1-23,19,13,7,12,4,-4,78,69,56,0.00,40.00,9,6,19,0.00
2013-1-24,4,2,0,-7,-8,-8,68,64,60,0.00,40.00,6,4,16,0.00
2013-1-30,29,22,16,22,15,9,76,75,73,0.00,40.00,12,7,22,0.00
2013-1-31,13,9,3,4,1,-4,76,69,61,0.00,40.00,9,6,17,0.00
2013-2-1,6,1,-5,0,-6,-10,77,70,61,0.00,40.00,11,6,17,0.00
2013-2-2,13,8,6,2,0,-2,78,70,53,0.00,40.00,6,2,11,0.00
2013-2-3,22,13,7,8,3,-9,76,65,28,0.00,40.00,9,4,15,0.00
2013-2-4,18,13,8,4,-1,-14,76,56,27,0.00,40.00,6,2,14,0.00
2013-2-5,29,20,8,17,10,1,76,66,60,0.00,40.00,9,-40,16,0.00
2013-2-6,33,22,7,22,12,2,78,65,52,0.00,40.00,6,2,13,0.00
2013-2-7,34,32,23,22,20,11,62,62,62,0.00,40.00,5,2,11,0.00
2013-2-8,26,22,11,17,11,0,70,62,53,0.00,40.00,5,2,15,0.00
2013-2-9,30,24,9,24,17,4,78,74,61,0.00,40.00,9,5,19,0.00
2013-2-10,42,32,23,30,22,12,78,67,62,0.00,40.00,22,6,44,0.00
2013-2-11,38,32,30,26,20,17,63,62,58,0.00,40.00,21,13,34,0.00
2013-2-12,31,26,23,18,14,11,66,59,55,0.00,40.00,9,7,14,0.00
2013-2-13,38,36,33,23,22,22,63,58,52,0.00,40.00,8,5,12,0.00
2013-2-14,36,35,33,25,24,22,63,63,63,0.00,40.00,7,5,17,0.00
2013-2-15,28,21,13,5,2,0,56,45,32,0.00,40.00,6,3,12,0.00
2013-2-16,19,13,10,2,-2,-6,62,51,36,0.00,40.00,4,2,12,0.00
2013-2-17,27,17,4,14,3,-5,63,55,40,0.00,40.00,7,3,13,0.00
2013-2-18,47,35,26,34,23,15,65,62,57,0.00,40.00,12,5,19,0.00
2013-2-19,23,13,9,12,3,-5,68,63,53,0.00,40.00,11,7,18,0.00
2013-2-20,21,11,6,3,-2,-5,73,58,46,0.00,40.00,6,4,14,0.00
2013-2-21,26,18,11,15,8,1,77,68,63,0.00,40.00,11,6,21,0.00
2013-2-22,32,29,24,21,18,13,63,63,62,0.00,40.00,11,3,19,0.00
2013-2-23,30,27,24,17,15,13,63,61,56,0.00,40.00,10,7,19,0.00
2013-2-24,40,27,15,21,14,8,79,58,39,0.00,40.00,6,2,9,0.00
2013-2-25,41,30,18,27,19,10,74,63,52,0.00,40.00,5,2,8,0.00
2013-2-26,33,32,29,22,20,17,63,63,62,0.00,40.00,15,10,30,0.00
2013-2-27,33,30,28,21,18,16,62,62,61,0.00,40.00,8,5,20,0.00
2013-2-28,34,32,25,26,20,13,74,63,58,0.00,40.00,9,5,17,0.00
2013-3-1,27,23,16,15,12,9,78,63,52,0.00,40.00,9,4,21,0.00
2013-3-2,30,19,10,12,6,-2,78,58,32,0.00,40.00,7,3,13,0.00
2013-3-3,31,19,6,9,-14,-39,64,26,10,0.00,40.00,6,2,8,0.00
2013-3-4,33,24,12,18,-8,-34,64,32,10,0.00,40.00,12,5,21,0.00
2013-3-5,30,28,25,19,15,-23,73,61,10,0.00,40.00,9,5,19,0.00
2013-3-6,34,29,24,23,16,-23,75,62,10,0.00,40.00,5,3,13,0.00
2013-3-7,40,29,16,19,6,-31,75,46,10,0.00,40.00,3,1,7,0.00
2013-3-8,41,27,13,27,-6,-33,73,30,10,0.00,40.00,6,2,13,0.00
2013-3-9,40,36,30,33,16,-18,77,56,10,0.00,40.00,7,5,17,0.00
2013-3-10,35,35,35,28,28,28,75,75,75,0.00,40.00,3,3,9,0.00
2013-3-11,35,32,31,28,-6,-19,75,28,10,0.00,40.00,7,4,13,0.00
2013-3-12,32,29,26,22,-7,-23,74,30,10,0.00,40.00,7,5,16,0.00
2013-3-13,34,26,20,15,-3,-23,74,36,10,0.00,40.00,8,4,16,0.00
2013-3-14,36,27,19,17,-4,-19,74,37,10,0.00,40.00,6,2,9,0.00
2013-3-15,35,31,27,25,-14,-21,66,14,10,0.00,40.00,10,4,16,0.00
2013-3-16,31,27,22,18,-5,-19,74,32,11,0.00,40.00,9,4,17,0.00
2013-3-17,33,25,17,18,4,-9,74,45,21,0.00,40.00,11,6,17,0.00
2013-3-18,33,27,19,17,6,-4,74,44,27,0.00,40.00,13,6,22,0.00
2013-3-19,31,21,13,12,-5,-14,74,36,19,0.00,40.00,12,8,21,0.00
2013-3-20,23,16,10,7,-6,-18,64,39,21,0.00,40.00,9,6,17,0.00
2013-3-21,32,20,10,-5,-11,-17,29,24,20,0.00,40.00,6,2,9,0.00
2013-3-22,36,25,13,15,0,-13,74,34,20,0.00,40.00,6,2,7,0.00
2013-3-23,38,30,21,17,2,-4,73,31,20,0.00,40.00,6,2,12,0.00
2013-3-24,31,30,29,7,0,-2,37,28,25,0.00,40.00,12,8,23,0.00